Regional Weather Roundup
Issued by NWS

Home | Current Version | Previous Version | Graphics & Text | Print | Product List | Glossary On
Versions: 1 2 3 4 5 6 7 8 9 10 11 12 13 14 15 16 17 18 19 20 21 22 23 24 25 26 27 28 29 30 31 32 33 34 35 36 37 38 39 40 41 42 43 44 45 46 47 48 49 50
000
ASUS44 KMEG 190410
RWRTN
TENNESSEE HOURLY STATE WEATHER ROUNDUP
NATIONAL WEATHER SERVICE MEMPHIS TN
1100 PM CDT SAT APR 18 2015

TNZ002-004-019-021-049-052-054-088>092-190500-
WEST TENNESSEE

CITY           SKY/WX    TMP DP  RH WIND       PRES   REMARKS
MEMPHIS INTL   CLOUDY    67  62  84 SE7       29.80F
NWS MEMPHIS      N/A    N/A N/A N/A MISG        N/A
JACKSON        CLOUDY    67  62  84 CALM      29.82F
DYERSBURG      CLOUDY    68  54  60 S3        29.82F
UNION CITY     CLOUDY    64  32  29 NW6       29.81F
PARIS          MOCLDY    64  63  94 SE7       29.85F
LEXINGTON      PTCLDY    68  61  77 CALM      29.84F
SAVANNAH       CLOUDY    66  32  28 CALM      29.85F
$$

TNZ008-025-027-028-033-062-065-066-190500-
NORTH MIDDLE TENNESSEE

CITY           SKY/WX    TMP DP  RH WIND       PRES   REMARKS
NASHVILLE      CLOUDY    65  63  93 S3        29.87F
CLARKSVILLE    CLOUDY    69  61  75 SE6       29.85F
SMYRNA         CLOUDY    64  64 100 CALM      29.88F
COOKEVILLE     CLOUDY    68  61  77 S3        29.91S
CROSSVILLE     CLOUDY    65  59  81 SE7       29.95F
$$

TNZ061-075-076-078-094-096-097-190500-
SOUTH MIDDLE TENNESSEE

CITY           SKY/WX    TMP DP  RH WIND       PRES   REMARKS
FAYETTEVILLE   PTCLDY    64  63  94 SE8       29.88F
TULLAHOMA      MOCLDY    66  61  82 CALM      29.91F
WINCHESTER     CLOUDY    66  63  88 SE5       29.91S
MCMINNVILLE    CLOUDY    70  63  78 E3        29.91F
COLUMBIA       PTCLDY    66  32  28 E3        29.85F
SHELBYVILLE    MOCLDY    64  64 100 SE3       29.90F
$$

TNZ017-018-042-046-047-190500-
NORTHEAST TENNESSEE

CITY           SKY/WX    TMP DP  RH WIND       PRES   REMARKS
TRI CITIES     MOCLDY    64  59  83 CALM      29.97F
ELIZABETHTON   PTCLDY    59  55  88 CALM      29.98F
$$

TNZ012-013-036-069-073-074-190500-
CENTRAL EAST TENNESSEE

CITY           SKY/WX    TMP DP  RH WIND       PRES   REMARKS
KNOXVILLE      CLOUDY    65  63  93 CALM      29.92F
OAK RIDGE      CLOUDY    68  62  81 W3        29.94F
GATLINBURG     CLOUDY    64  63  94 CALM      29.93F
MORRISTOWN     MOCLDY    64  61  88 CALM      29.95F
$$

TNZ083-085-099-190500-
SOUTHEAST TENNESSEE

CITY           SKY/WX    TMP DP  RH WIND       PRES   REMARKS
CHATTANOOGA    CLOUDY    68  63  84 NE3       29.93S
$$

SKY/WX REPORTED AS FAIR MEANS FEW OR NO CLOUDS BELOW
12 THOUSAND FEET.



USA.gov is the U.S. government's official web portal to all federal, state and local government web resources and services.